x

West Sea Otter (46204) Wave Buoy

12:00 - Sun 2nd Aug 2015 All times are PDT. -7 hours from GMT.

  • Sig Wave height 3.6ft
  • Peak Period 14s
  • Wind
    13mph, 16mph gusts
  • Sea Temp 62°f
  • Luft Temp 61°f
  • Sea Pressure 1018.2mb
  • West Sea Otter
  • West Sea Otter

More Historic Weather Station data

Upgrade to MSW Pro to gain access to the past 30 days of data for over 8000 Wavebouys and Weather Stations around the globe.

Join Pro

Comparision Forecast

View Surf forecast
   
So 08/02 12:00 3.5ft 14s 13 16 mph 1018.2mb 62f 61f
Sa 08/01 11:00 3.5ft 14s 13 16 mph 1018.8mb 63f 61f
7:00 3ft 14s 16 18 mph 1018.9mb 63f 62f
6:00 3ft 14s 13 16 mph 1019.2mb 63f 62f
4:00 3ft 14s 13 16 mph 1019.9mb 63f 62f
2:00 3.5ft 14s 13
mph
1020mb 63f 62f
12:00 3.5ft 7s 9 11 mph 1020.3mb 63f 62f
9:00 3.5ft 15s 4 7 mph 1020.5mb 62f 61f
8:00 3.5ft 15s 4 7 mph 1020.6mb 62f 61f
7:00 3.5ft 8s 11 13 mph 1020.3mb 62f 61f
6:00 3.5ft 8s 13 16 mph 1020.1mb 63f 61f
4:00 3.5ft 8s 11 16 mph 1020.2mb 62f 60f
3:00 3.5ft 15s 11 13 mph 1020.3mb 62f 61f
2:00 4ft 8s 9 11 mph 1020.5mb 63f 62f
1:00 4ft 7s 9 13 mph 1020.6mb 63f 62f
12:00 3.5ft 15s 9 11 mph 1020.7mb 63f 62f
Fr 07/31 11:00 3.5ft 15s 7 9 mph 1020.9mb 63f 62f
9:00 3.5ft 14s 9 11 mph 1021.1mb 63f 62f
8:00 3.5ft 15s 9 11 mph 1021.4mb 63f 63f
7:00 3.5ft 15s 9 11 mph 1021.5mb 64f 63f
6:00 3.5ft 15s 9 11 mph 1021.8mb 64f 63f
5:00 3.5ft 8s 9 11 mph 1022mb 64f 63f
3:00 3ft 15s 9
mph
1022.7mb 64f 63f
2:00 3.5ft 16s 7 9 mph 1022.8mb 64f 63f
1:00 3.5ft 16s 7 9 mph 1022.7mb 64f 63f
12:00 3.5ft 15s 7
mph
1022.7mb 63f 62f
10:00 3.5ft 16s 7
mph
1022.6mb 62f 62f
8:00 3ft 16s 9
mph
1022.5mb 62f 62f
3:00 3ft 15s 11 13 mph 1021.7mb 62f 61f
2:00 3ft 15s 11 13 mph 1021.7mb 62f 61f
1:00 3ft 16s 11 13 mph 1021.7mb 62f 61f
Do 07/30 10:00 3.5ft 16s 13 18 mph 1021.9mb 62f 62f
8:00 3.5ft 15s 13 18 mph 1021.9mb 62f 62f
7:00 3.5ft 16s 13 16 mph 1022.2mb 63f 62f
5:00 3ft 16s 13 16 mph 1022.9mb 63f 61f
4:00 3.5ft 16s 13 16 mph 1023.2mb 63f 61f
3:00 3.5ft 16s 11 13 mph 1023.4mb 63f 61f
1:00 3.5ft 16s 11 13 mph 1023.4mb 62f 61f
12:00 3.5ft 16s 11 13 mph 1023.4mb 62f 61f
11:00 3.5ft 16s 9 11 mph 1023.2mb 62f 61f
10:00 4ft 15s 9 11 mph 1023.3mb 62f 60f
9:00 3.5ft 8s 9 11 mph 1023.2mb 62f 60f
5:00 4ft 16s 9 11 mph 1023mb 62f 60f
4:00 4ft 17s 11 13 mph 1023.1mb 62f 60f
3:00 3.5ft 17s 11 13 mph 1023.1mb 62f 60f
2:00 3.5ft 16s 11 13 mph 1023.3mb 61f 60f
12:00 4ft 17s 11 13 mph 1023mb 61f 61f
Mi 07/29 10:00 4ft 8s 11
mph
1023.4mb 62f 61f
9:00 3.5ft 17s 9 11 mph 1023.4mb 63f 61f
8:00 4ft 16s 9 11 mph 1023.8mb 64f 62f
7:00 4ft 16s 9
mph
1024.1mb 64f 62f
6:00 4.5ft 16s 7 9 mph 1024.6mb 64f 62f
5:00 4.5ft 16s 4 7 mph 1025mb 64f 62f
4:00 4.5ft 17s 7 9 mph 1025.1mb 64f 62f
3:00 4.5ft 17s 7
mph
1025.5mb 64f 62f
2:00 4.5ft 16s 2 4 mph 1025.7mb 64f 62f
1:00 4.5ft 9s 2 4 mph 1025.3mb 63f 62f
10:00 5ft 9s 4
mph
1024.9mb 62f 61f